Location: Foligno
(42.9600°N, 12.7050°E)
Time: 10:42:14
(UTC+01:00)

ISS - Visible Passes

Search period start: 11 December 2018 00:00
Search period end: 21 December 2018 00:00
Orbit: 401 x 408 km, 51.6° (Epoch: 12 December)

Date Brightness Start Highest point End Pass type
(mag) Time Alt. Az. Time Alt. Az. Time Alt. Az.
11 Dec -3.2 18:15:06 10° WNW 18:18:18 55° SW 18:19:44 28° SSE visible
12 Dec -3.9 17:22:52 10° NW 17:26:08 80° NNE 17:29:23 10° ESE visible
12 Dec -0.7 19:00:38 10° WSW 19:02:11 13° SW 19:03:33 11° SSW visible
13 Dec -1.4 18:07:31 10° W 18:10:12 23° SW 18:12:50 10° S visible
14 Dec -2.5 17:14:58 10° WNW 17:18:06 43° SW 17:21:12 10° SSE visible
15 Dec 0.0 18:01:34 10° SW 18:01:52 10° SW 18:02:10 10° SW visible
16 Dec -0.7 17:07:29 10° W 17:09:52 19° SW 17:12:14 10° S visible
